Overview Statistics Trail Chart Weather Telemetry Raw packets
 

This is the latest recevied weather packets stored in our database for station/object W0AKY-13. If no packets are shown the sender has not sent any weather packets the latest 10 day(s).

<< 68 69 70 71 72 73 74 >>
Time Temp. Humidity Pressure Rain* Wind** Luminosity Snow
1788060865 27.78° C 69% 1011.3 hPa 0 mm - 0 W/m² -
1788060560 27.78° C 68% 1011.5 hPa 0 mm - 0 W/m² -
1788060259 28.33° C 68% 1011.7 hPa 0 mm - 0 W/m² -
1788059955 27.78° C 69% 1011.5 hPa 0 mm - 0 W/m² -
1788059650 27.78° C 69% 1011.3 hPa 0 mm - 0 W/m² -
1788059345 27.78° C 68% 1011.6 hPa 0 mm - 0 W/m² -
1788059041 28.33° C 68% 1011.5 hPa 0 mm - 0 W/m² -
1788058741 28.33° C 68% 1011.3 hPa 0 mm - 0 W/m² -
1788058440 28.33° C 68% 1011.3 hPa 0 mm - 0 W/m² -
1788058140 28.33° C 67% 1011.3 hPa 0 mm - 0 W/m² -
1788057835 28.33° C 68% 1011.5 hPa 0 mm - 0 W/m² -
1788057532 28.33° C 67% 1011.2 hPa 0 mm - 0 W/m² -
1788057231 28.33° C 69% 1011.2 hPa 0 mm - 0 W/m² -
1788056930 28.89° C 67% 1011.3 hPa 0 mm - 0 W/m² -
1788056626 28.89° C 68% 1011 hPa 0 mm - 0 W/m² -
1788056325 28.89° C 66% 1010.8 hPa 0 mm - 0 W/m² -
1788056021 28.89° C 67% 1011 hPa 0 mm - 0 W/m² -
1788055721 28.89° C 67% 1011 hPa 0 mm - 0 W/m² -
1788055415 28.89° C 68% 1010.8 hPa 0 mm - 0 W/m² -
1788055111 28.89° C 67% 1010.9 hPa 0 mm - 0 W/m² -
1788054812 28.89° C 67% 1010.7 hPa 0 mm - 0 W/m² -
1788053587 29.44° C 69% 1010.5 hPa 0 mm - 0 W/m² -
1788053282 29.44° C 69% 1010.5 hPa 0 mm - 0 W/m² -
1788052978 29.44° C 69% 1010.5 hPa 0 mm - 0 W/m² -
1788052674 28.89° C 70% 1010.6 hPa 0 mm - 0 W/m² -

* Rain latest hour (hover to see other rain measurements)
** Current wind speed in m/s (hover to see current wind gust speed)